Location: Caltech
(34.1382°N, 118.1253°W)
Time: 00:06:37
(UTC-07:00)

FENGYUN 3A - Visible Passes

Search period start: 30 March 2015 00:00
Search period end: 09 April 2015 00:00
Orbit: 819 x 834 km, 98.5° (Epoch: 29 March)

Date Brightness Start Highest point End Pass type
(mag) Time Alt. Az. Time Alt. Az. Time Alt. Az.
30 Mar 4.2 20:51:29 37° ENE 20:51:43 37° ENE 20:56:39 10° N visible
30 Mar 5.7 22:32:59 22° W 22:32:59 22° W 22:36:12 10° NW visible
31 Mar 4.7 20:32:22 24° E 20:33:03 25° ENE 20:37:24 10° NNE visible
31 Mar 5.1 22:13:52 33° W 22:13:52 33° W 22:18:00 10° NNW visible
01 Apr 5.2 20:13:15 16° E 20:14:25 17° ENE 20:17:51 10° NNE visible
01 Apr 4.3 21:54:45 52° W 21:54:45 52° W 21:59:32 10° NNW visible
02 Apr 5.5 19:54:41 10° ENE 19:55:50 11° ENE 19:57:20 10° NE visible
02 Apr 3.6 21:35:37 81° WNW 21:35:37 81° WNW 21:40:53 10° NNW visible
03 Apr 3.5 21:16:31 65° E 21:16:43 66° ENE 21:22:03 10° N visible
03 Apr 6.3 22:58:00 12° W 22:58:00 12° W 22:59:29 10° WNW visible
04 Apr 4.0 20:57:23 41° E 20:58:01 43° ENE 21:03:05 10° N visible
04 Apr 5.8 22:38:53 19° W 22:38:53 19° W 22:42:12 10° NW visible
05 Apr 4.5 20:38:16 27° E 20:39:20 29° ENE 20:43:55 10° N visible
05 Apr 5.2 22:19:47 30° W 22:19:47 30° W 22:24:09 10° NW visible
06 Apr 5.0 20:19:10 17° E 20:20:41 19° ENE 20:24:30 10° NNE visible
06 Apr 4.4 22:00:39 45° W 22:00:39 45° W 22:05:46 10° NNW visible
07 Apr 5.5 20:00:03 10° E 20:02:04 13° ENE 20:04:31 10° NE visible
07 Apr 3.7 21:41:33 69° SW 21:41:48 71° WSW 21:47:10 10° NNW visible
08 Apr 3.5 21:22:26 68° SE 21:23:02 77° ENE 21:28:24 10° N visible
08 Apr 6.4 23:03:55 10° W 23:03:58 10° W 23:04:07 10° W visible
